BEIDOU 11

Last updated on Sun Feb 19 2023 00:02:46 GMT+0000 (Coordinated Universal Time)

1 38091U 12008A 23049.43413075 .00000047 00000+0 00000+0 0 9996 2 38091 2.1296 71.6867 0013565 309.8777 341.5116 1.00271755 40293

Satellite not in orbit

BEIDOU 11